This is the latest recevied weather packets stored in our database for station/object OK1TOM-6. If no packets are shown the sender has not sent any weather packets the latest 10 day(s).
| Time | Temp. | Humidity | Pressure | Rain* | Wind** | Luminosity | Snow |
|---|---|---|---|---|---|---|---|
| 1778257554 | 11.11° C | 76% | 1019.9 hPa | 0 mm | - | - | - |
| 1778256950 | 11.67° C | 75% | 1020 hPa | 0 mm | - | - | - |
| 1778256347 | 11.11° C | 74% | 1020 hPa | 0 mm | - | - | - |
| 1778255744 | 11.11° C | 72% | 1019.9 hPa | 0 mm | - | - | - |
| 1778255140 | 11.11° C | 74% | 1019.9 hPa | 0 mm | - | - | - |
| 1778254537 | 11.11° C | 71% | 1020 hPa | 0 mm | - | - | - |
| 1778253933 | 11.11° C | 73% | 1020 hPa | 0 mm | - | - | - |
| 1778253330 | 11.11° C | 73% | 1020 hPa | 0 mm | - | - | - |
| 1778252727 | 11.11° C | 75% | 1020.1 hPa | 0 mm | - | - | - |
| 1778252123 | 11.11° C | 76% | 1020.2 hPa | 0 mm | - | - | - |
| 1778251520 | 11.11° C | 76% | 1020.2 hPa | 0 mm | - | - | - |
| 1778250916 | 11.11° C | 72% | 1020.3 hPa | 0 mm | - | - | - |
| 1778250373 | 11.11° C | 73% | 1020.2 hPa | 0 mm | - | - | - |
| 1778249770 | 11.11° C | 74% | 1020.3 hPa | 0 mm | - | - | - |
| 1778249167 | 10.56° C | 73% | 1020.2 hPa | 0 mm | - | - | - |
| 1778248563 | 10.56° C | 74% | 1020.4 hPa | 0 mm | - | - | - |
| 1778247960 | 10.56° C | 75% | 1020.4 hPa | 0 mm | - | - | - |
| 1778247356 | 10.56° C | 74% | 1020.4 hPa | 0 mm | - | - | - |
| 1778246753 | 10.56° C | 77% | 1020.4 hPa | 0 mm | - | - | - |
| 1778246149 | 10° C | 79% | 1020.6 hPa | 0 mm | - | - | - |
| 1778245546 | 10° C | 78% | 1020.5 hPa | 0 mm | - | - | - |
| 1778244942 | 10° C | 77% | 1020.6 hPa | 0 mm | - | - | - |
| 1778244339 | 10° C | 78% | 1020.6 hPa | 0 mm | - | - | - |
| 1778243735 | 10° C | 79% | 1020.5 hPa | 0 mm | - | - | - |
| 1778243132 | 10° C | 78% | 1020.5 hPa | 0 mm | - | - | - |
* Rain latest hour (hover to see other rain measurements)
** Current wind speed in m/s (hover to see current wind gust speed)